WZZ2713 EPKK-LZKZ

Flight info

Callsign WZZ2713
Flight time N/A
Altitude 17000
Route REGTO T195 RAZEC
Aircraft A20N/M-SDE2E3FGHIRWXY/LB1

Departure

Time 2026-05-06 19:20
Airport Kraków John Paul II International Airport (EPKK)

Arrival

Time N/A
Airport Košice International Airport (LZKZ)
Time Latitude Longitude Altitude Speed Heading
2026-05-06 18:38 50.07318 19.80129 793 ft 0 kts 134°
2026-05-06 18:49 50.07328 19.80113 793 ft 3 kts 134°
2026-05-06 18:49 50.07340 19.80093 793 ft 2 kts 138°
2026-05-06 18:49 50.07356 19.80082 793 ft 3 kts 165°
2026-05-06 18:50 50.07374 19.80074 793 ft 3 kts 165°
2026-05-06 18:50 50.07389 19.80069 793 ft 3 kts 166°
2026-05-06 18:50 50.07402 19.80055 793 ft 0 kts 95°
2026-05-06 18:52 50.07402 19.80059 793 ft 1 kts 95°
2026-05-06 18:52 50.07401 19.80068 793 ft 1 kts 95°
2026-05-06 18:52 50.07408 19.80152 793 ft 18 kts 78°
2026-05-06 18:52 50.07441 19.80343 792 ft 18 kts 53°
2026-05-06 18:53 50.07546 19.80412 792 ft 17 kts
2026-05-06 18:53 50.07658 19.80391 792 ft 16 kts 348°
2026-05-06 18:53 50.07768 19.80355 793 ft 16 kts 348°
2026-05-06 18:53 50.07821 19.80338 792 ft 0 kts 348°
2026-05-06 19:02 50.07824 19.80337 792 ft 0 kts 348°
2026-05-06 19:08 50.07843 19.80331 792 ft 12 kts 348°
2026-05-06 19:08 50.07887 19.80317 792 ft 0 kts 348°
2026-05-06 19:09 50.07967 19.80284 791 ft 26 kts 335°
2026-05-06 19:09 50.08006 19.80203 792 ft 10 kts 270°
2026-05-06 19:09 50.08002 19.80156 792 ft 0 kts 259°
2026-05-06 19:10 50.07994 19.80093 793 ft 15 kts 259°
2026-05-06 19:11 50.07960 19.79844 792 ft 27 kts 258°
2026-05-06 19:11 50.07919 19.79549 794 ft 52 kts 257°
2026-05-06 19:11 50.07832 19.78932 797 ft 33 kts 262°
2026-05-06 19:11 50.07809 19.78745 798 ft 15 kts 258°
2026-05-06 19:12 50.07804 19.78714 798 ft 2 kts 257°
2026-05-06 19:12 50.07795 19.78657 798 ft 10 kts 257°
2026-05-06 19:12 50.07767 19.78470 798 ft 21 kts 255°
2026-05-06 19:12 50.07736 19.78245 797 ft 22 kts 256°
2026-05-06 19:13 50.07593 19.78021 798 ft 31 kts 171°
2026-05-06 19:13 50.07473 19.78185 798 ft 20 kts 80°
2026-05-06 19:13 50.07504 19.78397 798 ft 20 kts 78°
2026-05-06 19:13 50.07537 19.78628 797 ft 26 kts 78°
2026-05-06 19:14 50.07581 19.78945 796 ft 33 kts 77°
2026-05-06 19:14 50.07628 19.79292 795 ft 33 kts 78°
2026-05-06 19:14 50.07677 19.79640 794 ft 33 kts 78°
2026-05-06 19:14 50.07727 19.79997 793 ft 34 kts 77°
2026-05-06 19:15 50.07782 19.80298 792 ft 20 kts 52°
2026-05-06 19:15 50.07829 19.80333 792 ft 0 kts 351°
2026-05-06 19:19 50.07845 19.80330 792 ft 11 kts 352°
2026-05-06 19:19 50.07983 19.80274 791 ft 24 kts 328°
2026-05-06 19:19 50.08002 19.80146 792 ft 9 kts 256°
2026-05-06 19:19 50.07989 19.80058 793 ft 8 kts 257°
2026-05-06 19:20 50.07953 19.79803 793 ft 55 kts 257°
2026-05-06 19:20 50.07821 19.78864 798 ft 122 kts 257°
2026-05-06 19:20 50.07606 19.77368 1115 ft 142 kts 256°
2026-05-06 19:20 50.07393 19.75882 1783 ft 141 kts 257°
2026-05-06 19:21 50.07224 19.74385 2409 ft 143 kts 255°
2026-05-06 19:21 50.07013 19.72824 3066 ft 154 kts 252°
2026-05-06 19:21 50.06760 19.71133 3747 ft 168 kts 251°
2026-05-06 19:21 50.06494 19.69316 4401 ft 179 kts 252°
2026-05-06 19:22 50.06117 19.67355 4832 ft 204 kts 241°
2026-05-06 19:22 50.05208 19.65563 5477 ft 219 kts 216°
2026-05-06 19:22 50.03783 19.64639 6142 ft 234 kts 188°
2026-05-06 19:22 50.02115 19.64841 6834 ft 249 kts 173°
2026-05-06 19:23 50.00398 19.65428 7648 ft 256 kts 170°
2026-05-06 19:23 49.98640 19.66075 8497 ft 262 kts 170°
2026-05-06 19:23 49.96847 19.66722 9379 ft 267 kts 171°
2026-05-06 19:23 49.95019 19.67364 10142 ft 275 kts 171°
2026-05-06 19:24 49.93082 19.68028 10530 ft 296 kts 171°
2026-05-06 19:24 49.91024 19.68728 10896 ft 316 kts 170°
2026-05-06 19:24 49.88896 19.69784 11523 ft 329 kts 158°
2026-05-06 19:24 49.87004 19.71766 12260 ft 343 kts 140°
2026-05-06 19:25 49.85408 19.74622 13023 ft 352 kts 131°
2026-05-06 19:25 49.83937 19.77675 13787 ft 358 kts 130°
2026-05-06 19:25 49.82476 19.80755 14478 ft 363 kts 130°
2026-05-06 19:25 49.80970 19.83913 15174 ft 367 kts 130°